Location: Edmondson
(35.1065°N, 90.3104°W)
Time: 08:33:26
(UTC+00:00)

ARIANE 6 FM1 Upper Stage - Visible Passes

Search period start: 12 October 2024 00:00
Search period end: 22 October 2024 00:00
Orbit: 563 x 594 km, 62.0° (Epoch: 11 October)

Date Brightness Start Highest point End Pass type
(mag) Time Alt. Az. Time Alt. Az. Time Alt. Az.
18 Oct 5.1 01:10:10 10° N 01:10:50 12° N 01:10:50 12° N visible
19 Oct 4.8 01:13:46 10° N 01:15:11 17° N 01:15:11 17° N visible
20 Oct 4.4 01:17:34 10° NNW 01:19:38 25° N 01:19:38 25° N visible
21 Oct 3.9 01:21:32 10° NNW 01:24:12 36° NNW 01:24:12 36° NNW visible
21 Oct 4.7 23:48:01 10° NNE 23:50:14 14° NE 23:52:25 10° ENE visible
